星链-31862 (STARLINK-31862 )

导读

STARLINK-31862是美国太空探索技术公司SpaceX星链星座的一员,于2024年5月18日发射升空。星链项目旨在构建全球卫星互联网星座,为全球偏远地区、高纬度区域等提供低延迟宽带互联网服务,该卫星入轨后将和其他星链卫星协同,拓展星座覆盖能力,提升全球网络接入服务。

Basic Information
目录编号:
59786
目录名称:
STARLINK-31862
国际标识:
2024-093E
轨道中心:
EARTH
卫星名称:
星链-31862
卫星全名:
星链-31862 (STARLINK-31862 )
卫星状态:
在轨 (已飞行847 天)
发射日期:
2024-05-18 UTC
国别 :
美国 (US)
星等 :
--
This satellite is enrolled in the Space Conjunction Data Service (SCDS) and the current flight risk assessment level is: High Risk
Orbit Information
数据来源 国际轨道数据
星历时间: 2026-09-11T16:24:19+0800
17小时前
查看轨道信息
半长轴: 6861.19km
偏心率: 0.0001184
轨道倾角: 43.004°
近地点辐角 266.161°
升交点赤经 240.053°
平近点角 93.910°
近地点: 482.24km
远地点: 483.866km
周期: 94.267分钟
每日圈数: 15.275788
Detailed Information
固有亮度:
5
最大亮度:
1.5
卫星平台:
Starlink v2.0 mini
覆盖范围:
全球
运营商:
太空探索技术公司
运营商所在国:
美国
制造商(研发单位):
太空探索技术公司
制造商所在国:
美国
使用方式:
暂无
Satellite Introduction
星链(Starlink)计划是由太空探索技术公司(SpaceX)提出的一个巨型低轨卫星互联网星座项目,计划在2019年至2024年间在太空搭建由约1.2万颗卫星组成的“星链”网络,其中1584颗将部署在地球上空550千米处的近地轨道,并从2020年开始工作。该卫星仍在工作。
2D Orbit Map
3D Orbit Map
Orbit Altitude Analysis Chart
Orbit Inclination Analysis Chart
Orbit Comprehensive Analysis Chart
View Comprehensive Chart
Conjunction Data List
Event ID Objects TCA Miss Dist (km) Collision Risk Probability Collision Risk Index (CRI) Action
CDM_260914-025205-978606-425321
2026-09-14T
02:52:57+0000
0.319 km
远距离
3.502654E-4 高风险 0.86
CDM_260914-081705-978606-783421
2026-09-14T
08:17:44+0000
0.292 km
中距离
3.31199E-4 高风险 0.85
CDM_260913-102405-978606-425321
2026-09-13T
10:24:20+0000
0.507 km
远距离
1.360987E-4 高风险 0.78
CDM_260913-085005-978606-425321
2026-09-13T
08:50:11+0000
1.452 km
极远距离
4.868643E-6 低风险 0.49
CDM_260914-011805-978606-425321
2026-09-14T
01:18:47+0000
1.781 km
极远距离
2.619251E-6 低风险 0.43
CDM_260914-064305-978606-783421
2026-09-14T
06:43:34+0000
1.684 km
极远距离
2.312774E-6 低风险 0.42
CDM_260914-095805-978606-453121
OBJECT D (64531)
2026-09-14T
09:58:49+0000
2.372 km
极远距离
1.875878E-6 低风险 0.4
CDM_260913-115805-978606-425321
2026-09-13T
11:58:29+0000
2.096 km
极远距离
1.726469E-6 低风险 0.4
CDM_260914-042705-978606-425321
2026-09-14T
04:27:06+0000
2.389 km
极远距离
1.315941E-6 低风险 0.37
CDM_260914-045305-370005-978621
2026-09-14T
04:53:36+0000
2.522 km
极远距离
1.311164E-6 低风险 0.37
Miss Distance Evolution Trend with All Objects
Collision Probability Evolution Trend with All Objects